Stations météo

réclame
Mon MeteoGroup
Drumalbin, Grande-Bretagne (3155): Température de l'air & dewpoint: 14.06.2018 06:00:00 - 20.06.2018 06:00:00 (BST)Drumalbin, Grande-Bretagne (3155): Température de l'air -20cm & Température de l'air -100cm: 14.06.2018 06:00:00 - 20.06.2018 06:00:00 (BST)Drumalbin, Grande-Bretagne (3155): Vitesse du vent & gusts: 14.06.2018 06:00:00 - 20.06.2018 06:00:00 (BST)Drumalbin, Grande-Bretagne (3155): Direction du vent: 14.06.2018 06:00:00 - 20.06.2018 06:00:00 (BST)Drumalbin, Grande-Bretagne (3155): reduced air pressure: 14.06.2018 06:00:00 - 20.06.2018 06:00:00 (BST)Drumalbin, Grande-Bretagne (3155): visibility: 14.06.2018 06:00:00 - 20.06.2018 06:00:00 (BST)Drumalbin, Grande-Bretagne (3155): Quantités de précipitations: 14.06.2018 06:00:00 - 20.06.2018 06:00:00 (BST)
Date & Time tt [°C] td [°C] tt -20cm [°C] tt -100cm [°C] ff [km/h] ff [knt] fx [km/h] fx [knt] dd ppp [hPa] vv [km] rr [mm]
20.06.2018 06:00:00 - - - - - - - - - - - -
20.06.2018 05:00:00 14,3 14,1 - - 21 11 - - SW 1008,7 5 0,4
20.06.2018 04:00:00 14,2 14,0 - - 18 10 - - SW 1009,1 23 1,8
20.06.2018 03:00:00 13,5 13,5 - - 21 11 - - SW 1009,6 2,6 5,4
20.06.2018 02:00:00 11,7 11,7 - - 11 6 - - S 1010,1 3,8 4,0
20.06.2018 01:00:00 9,7 9,7 - - 11 6 - - NE 1012,1 4,3 11,4
20.06.2018 00:00:00 10,0 9,9 - - 5 3 - - E 1011,9 5 3,4
19.06.2018 23:00:00 9,7 9,5 - - 0 0 - - N 1013,3 2,6 3,8
19.06.2018 22:00:00 9,5 9,2 - - 8 4 - - N 1013,5 7 1,6
19.06.2018 21:00:00 9,2 8,7 - - 8 4 - - ESE 1014,6 4,7 1,4
19.06.2018 20:00:00 9,4 8,4 - - 9 5 - - S 1016,3 5 0,4
19.06.2018 19:00:00 11,1 7,6 - - 16 9 - - S 1016,5 22 0,0
19.06.2018 18:00:00 12,1 6,7 - - 15 8 - - SSW 1017,0 40 0,0
19.06.2018 17:00:00 12,9 7,0 - - 21 11 - - SSW 1017,6 40 0,0
19.06.2018 16:00:00 13,5 7,6 - - 15 8 - - WSW 1017,7 45 0,0
19.06.2018 15:00:00 13,1 7,4 - - 21 11 - - W 1018,4 40 0,0
19.06.2018 14:00:00 13,1 6,5 - - 24 13 - - W 1018,4 45 0,0
19.06.2018 13:00:00 12,1 7,3 - - 26 14 - - W 1018,8 35 0,0
19.06.2018 12:00:00 11,5 6,9 - - 29 16 - - WSW 1018,9 35 0,0
19.06.2018 11:00:00 11,6 7,1 - - 29 16 - - WSW 1018,9 35 0,0
19.06.2018 10:00:00 10,9 6,2 14,0 12,2 29 16 - - WSW 1019,0 35 0,0
19.06.2018 09:00:00 10,4 7,1 - - 24 13 - - WSW 1018,8 30 0,0
19.06.2018 08:00:00 9,8 7,4 - - 26 14 - - WSW 1018,2 29 0,0
19.06.2018 07:00:00 8,2 6,6 - - 26 14 - - WSW 1018,0 27 0,0
19.06.2018 06:00:00 7,5 6,1 - - 24 13 - - WSW 1017,6 26 0,0
19.06.2018 05:00:00 7,0 5,8 - - 28 15 - - W 1016,9 25 0,0
19.06.2018 04:00:00 6,9 5,6 - - 26 14 - - W 1016,5 25 0,0
19.06.2018 03:00:00 7,1 5,5 - - 29 16 - - WSW 1016,3 26 0,0
19.06.2018 02:00:00 7,8 5,8 - - 29 16 - - W 1016,0 27 0,0
19.06.2018 01:00:00 8,0 6,2 - - 22 12 - - W 1016,1 29 -
19.06.2018 00:00:00 8,1 6,3 - - 13 7 - - W 1015,5 28 0,0
18.06.2018 23:00:00 8,2 5,6 - - 22 12 - - W 1015,2 30 0,0
18.06.2018 22:00:00 9,3 6,8 - - 22 12 - - W 1014,3 29 0,0
18.06.2018 21:00:00 10,2 7,8 - - 24 13 - - WSW 1013,6 29 0,0
18.06.2018 20:00:00 9,9 8,7 - - 24 13 - - W 1013,1 27 0,0
18.06.2018 19:00:00 10,8 9,2 - - 28 15 48 26 WSW 1012,4 28 0,0
18.06.2018 18:00:00 11,3 10,1 - - 28 15 46 25 W 1012,0 25 0,2
18.06.2018 17:00:00 13,1 9,0 - - 29 16 52 28 WSW 1011,6 35 0,0
18.06.2018 16:00:00 13,3 8,3 - - 29 16 63 34 WSW 1011,8 40 0,0
18.06.2018 15:00:00 15,3 8,1 - - 44 24 59 32 WSW 1011,9 45 0,0
18.06.2018 14:00:00 13,8 7,5 - - 39 21 52 28 WSW 1012,0 35 0,0
18.06.2018 13:00:00 13,4 7,7 - - 35 19 59 32 WSW 1012,2 40 0,0
18.06.2018 12:00:00 13,0 8,9 - - 34 18 48 26 WSW 1012,4 30 0,0
18.06.2018 11:00:00 12,1 8,1 - - 35 19 50 27 WSW 1012,6 30 0,0
18.06.2018 10:00:00 11,6 8,6 14,2 12,2 29 16 48 26 WSW 1012,2 30 0,0
18.06.2018 09:00:00 10,6 8,0 - - 28 15 - - WSW 1012,4 30 0,0
18.06.2018 08:00:00 10,2 8,2 - - 28 15 - - WSW 1011,7 27 0,0
18.06.2018 07:00:00 9,5 8,2 - - 26 14 - - WSW 1011,7 30 0,0
18.06.2018 06:00:00 9,5 8,1 - - 28 15 - - WSW 1011,3 30 0,0
18.06.2018 05:00:00 9,5 8,2 - - 29 16 46 25 W 1010,9 35 0,0
18.06.2018 04:00:00 10,0 8,9 - - 29 16 - - WSW 1010,4 40 0,0
18.06.2018 03:00:00 10,0 9,0 - - 28 15 - - W 1010,2 40 0,0
18.06.2018 02:00:00 10,6 9,8 - - 28 15 - - W 1010,2 40 0,0
18.06.2018 01:00:00 11,1 10,4 - - 31 17 - - W 1009,7 50 0,0
18.06.2018 00:00:00 11,8 11,7 - - 15 8 - - WSW 1009,5 14 0,0
17.06.2018 23:00:00 12,1 11,6 - - 22 12 - - W 1009,0 28 0,0
17.06.2018 22:00:00 12,5 12,3 - - 18 10 - - WSW 1009,0 8 1,6
17.06.2018 21:00:00 12,7 12,3 - - 28 15 - - SSW 1007,9 2,7 0,0
17.06.2018 20:00:00 13,3 12,1 - - 26 14 - - SSW 1007,9 50 0,0
17.06.2018 19:00:00 12,9 11,8 - - 24 13 - - SSW 1008,2 35 0,0
17.06.2018 18:00:00 12,7 11,1 - - 29 16 - - SSW 1008,3 12 0,0
17.06.2018 17:00:00 12,3 10,4 - - 24 13 - - SSW 1008,7 40 0,0
17.06.2018 16:00:00 12,6 9,8 - - 29 16 48 26 SSW 1009,1 40 0,0
17.06.2018 15:00:00 13,9 9,0 - - 35 19 46 25 SSW 1008,7 45 0,0
17.06.2018 14:00:00 14,4 9,4 - - 34 18 48 26 SSW 1009,1 50 0,0
17.06.2018 13:00:00 13,8 9,2 - - 22 12 - - SW 1008,9 50 0,0
17.06.2018 12:00:00 13,6 9,8 - - 24 13 - - SSW 1009,4 50 0,0
17.06.2018 11:00:00 12,3 9,2 - - 24 13 - - SW 1009,8 45 0,0
17.06.2018 10:00:00 11,2 9,2 14,2 12,4 16 9 - - SW 1009,8 40 0,0
17.06.2018 09:00:00 10,4 9,2 - - 16 9 - - SW 1009,8 40 0,0
17.06.2018 08:00:00 10,2 9,1 - - 21 11 - - SW 1009,6 35 0,0
17.06.2018 07:00:00 8,9 7,7 - - 22 12 - - SSW 1009,4 40 0,0
17.06.2018 06:00:00 8,3 6,7 - - 13 7 - - SSW 1009,5 40 0,0
17.06.2018 05:00:00 7,7 6,6 - - 16 9 - - SW 1009,3 35 0,0
17.06.2018 04:00:00 6,7 6,1 - - 13 7 - - SSW 1009,5 26 0,0
17.06.2018 03:00:00 6,7 6,3 - - 13 7 - - SW 1009,4 23 0,0
17.06.2018 02:00:00 7,2 6,8 - - 15 8 - - SW 1009,4 25 0,0
17.06.2018 01:00:00 7,6 7,1 - - 18 10 - - WSW 1009,3 28 0,0
17.06.2018 00:00:00 8,0 6,9 - - 22 12 - - WSW 1008,9 40 0,0
16.06.2018 23:00:00 8,0 6,9 - - 18 10 - - SW 1008,7 40 0,0
16.06.2018 22:00:00 8,7 7,3 - - 11 6 - - WSW 1008,3 50 0,0
16.06.2018 21:00:00 10,1 7,3 - - 22 12 - - W 1007,7 50 0,0
16.06.2018 20:00:00 10,9 7,4 - - 24 13 - - W 1007,2 50 0,0
16.06.2018 19:00:00 12,2 8,1 - - 26 14 - - W 1006,7 50 0,0
16.06.2018 18:00:00 13,3 9,2 - - 28 15 - - W 1006,2 50 0,0
16.06.2018 17:00:00 11,3 10,1 - - 22 12 - - W 1006,5 50 0,6
16.06.2018 16:00:00 8,5 7,5 - - 28 15 57 31 WSW 1007,0 1,6 1,8
16.06.2018 15:00:00 11,6 10,1 - - 18 10 - - W 1005,8 45 0,2
16.06.2018 14:00:00 12,3 11,4 - - 13 7 48 26 W 1005,4 50 1,4
16.06.2018 13:00:00 12,6 11,4 - - 35 19 48 26 S 1005,5 16 0,0
16.06.2018 12:00:00 12,1 10,7 - - 29 16 46 25 S 1006,2 50 0,4
16.06.2018 11:00:00 11,3 9,8 - - 35 19 46 25 S 1007,0 45 0,4
16.06.2018 10:00:00 10,8 9,9 14,7 12,5 22 12 - - S 1007,6 45 1,6
16.06.2018 09:00:00 10,2 9,1 - - 26 14 - - S 1008,2 10 1,0
16.06.2018 08:00:00 10,5 8,9 - - 24 13 - - S 1008,3 29 0,0
16.06.2018 07:00:00 10,7 9,0 - - 22 12 - - S 1008,7 30 0,0
16.06.2018 06:00:00 10,4 8,7 - - 18 10 - - SSW 1009,1 30 0,0
16.06.2018 05:00:00 10,1 8,8 - - 22 12 - - S 1009,4 30 0,0
16.06.2018 04:00:00 9,7 8,4 - - 22 12 - - S 1010,2 30 0,0
16.06.2018 03:00:00 8,6 7,7 - - 18 10 - - SSW 1010,6 29 0,0
16.06.2018 02:00:00 8,1 7,2 - - 15 8 - - SSW 1011,2 30 0,0
16.06.2018 01:00:00 9,5 7,5 - - 13 7 - - S 1011,5 40 0,0
16.06.2018 00:00:00 9,7 7,9 - - 24 13 - - S 1011,8 35 0,0
15.06.2018 23:00:00 9,5 8,0 - - 15 8 - - S 1012,3 35 0,0
15.06.2018 22:00:00 9,4 8,2 - - 16 9 - - S 1012,5 35 0,0
15.06.2018 21:00:00 9,4 8,3 - - 13 7 - - SSW 1012,6 45 0,0
15.06.2018 20:00:00 9,5 8,2 - - 18 10 - - SSW 1012,8 50 0,0
15.06.2018 19:00:00 9,8 8,0 - - 13 7 - - WSW 1012,6 50 0,2
15.06.2018 18:00:00 10,3 9,0 - - 15 8 - - SW 1012,7 8 0,2
15.06.2018 17:00:00 11,8 7,7 - - 24 13 - - WSW 1012,4 45 0,0
15.06.2018 16:00:00 12,5 6,8 - - 28 15 - - SW 1012,4 50 0,0
15.06.2018 15:00:00 12,0 7,8 - - 22 12 - - SW 1012,5 50 0,0
15.06.2018 14:00:00 11,7 7,5 - - 22 12 - - WSW 1012,3 45 0,0
15.06.2018 13:00:00 11,5 8,0 - - 21 11 - - WSW 1012,3 40 0,0
15.06.2018 12:00:00 10,6 6,9 - - 24 13 - - WSW 1012,3 40 0,0
15.06.2018 11:00:00 10,5 7,5 - - 22 12 - - WSW 1012,3 40 0,0
15.06.2018 10:00:00 9,6 7,0 15,0 12,7 24 13 - - WSW 1012,0 30 0,0
15.06.2018 09:00:00 9,4 7,3 - - 26 14 - - WSW 1012,0 30 0,0
15.06.2018 08:00:00 8,8 7,4 - - 21 11 - - WSW 1011,8 30 0,0
15.06.2018 07:00:00 8,6 7,4 - - 24 13 - - WSW 1011,2 29 0,0
15.06.2018 06:00:00 8,2 7,0 - - 21 11 - - WSW 1011,0 30 0,0
15.06.2018 05:00:00 7,9 6,9 - - 28 15 - - WSW 1010,6 30 0,0
15.06.2018 04:00:00 8,6 7,7 - - 26 14 - - WSW 1010,3 35 0,0
15.06.2018 03:00:00 8,5 7,6 - - 29 16 46 25 WSW 1009,9 29 0,0
15.06.2018 02:00:00 8,2 7,5 - - 22 12 46 25 SW 1010,3 50 0,8
15.06.2018 01:00:00 8,9 7,4 - - 26 14 - - SW 1010,3 19 0,0
15.06.2018 00:00:00 8,1 6,4 - - 24 13 - - SW 1010,0 30 0,0
14.06.2018 23:00:00 8,1 6,6 - - 24 13 - - SW 1010,3 30 0,0
14.06.2018 22:00:00 8,7 6,7 - - 26 14 - - SW 1010,3 35 0,0
14.06.2018 21:00:00 9,1 6,6 - - 28 15 52 28 WSW 1009,8 45 0,0
14.06.2018 20:00:00 11,0 6,3 - - 29 16 48 26 WSW 1009,0 45 0,0
14.06.2018 19:00:00 11,5 7,4 - - 39 21 67 36 W 1008,5 40 0,0
14.06.2018 18:00:00 12,1 7,7 - - 35 19 63 34 W 1007,4 35 0,0
14.06.2018 17:00:00 12,2 7,6 - - 44 24 65 35 W 1006,4 35 0,0
14.06.2018 16:00:00 9,6 7,9 - - 50 27 74 40 WNW 1005,7 35 0,2
14.06.2018 15:00:00 11,7 9,5 - - 46 25 78 42 W 1003,9 40 0,0
14.06.2018 14:00:00 11,6 6,7 - - 61 33 81 44 W 1002,8 30 0,0
14.06.2018 13:00:00 11,7 6,6 - - 55 30 91 49 WNW 1000,8 26 0,0
14.06.2018 12:00:00 10,7 8,9 - - 59 32 89 48 W 998,7 23 0,0
14.06.2018 11:00:00 10,5 9,6 - - 65 35 87 47 W 995,5 20 0,2
14.06.2018 10:00:00 11,8 9,5 15,4 12,7 63 34 102 55 W 992,3 22 0,0
14.06.2018 09:00:00 11,5 10,0 - - 65 35 96 52 WSW 990,0 4,3 0,0
14.06.2018 08:00:00 13,2 9,5 - - 48 26 83 45 SW 989,6 35 0,0
14.06.2018 07:00:00 14,1 11,5 - - 67 36 98 53 SSW 989,1 35 0,0
14.06.2018 06:00:00 13,9 12,3 - - 63 34 94 51 SW 988,8 22 0,0

tt = Température de l'air
td = dewpoint
tt -20cm = Température de l'air -20cm
tt -100cm = Température de l'air -100cm
ff = Vitesse du vent
fx = gusts
dd = Direction du vent
ppp = reduced air pressure
vv = visibility
rr = Quantités de précipitations

stations d'obs. à proximité